Regional Weather Roundup
Issued by NWS Albany, NY

Home | Current Version | Previous Version | Text Only | Print | Product List | Glossary On
Versions: 1 2 3 4 5 6 7 8 9 10 11 12 13 14 15 16 17 18 19 20 21 22 23 24 25 26 27 28 29 30 31 32 33 34 35 36 37 38 39 40 41 42 43 44 45 46 47 48 49 50
000
ASUS41 KALY 291610
RWRALY

NEW YORK STATE HOURLY WEATHER ROUNDUP
NATIONAL WEATHER SERVICE ALBANY NY
1200 PM EDT TUE JUL 29 2014

NOTE: "FAIR" INDICATES FEW OR NO CLOUDS BELOW 12,000 FEET WITH NO
SIGNIFICANT WEATHER AND/OR NO OBSTRUCTIONS TO VISIBILITY.

NYZ032-033-038>043-046>054-057>066-NYZ062>081-291700-
EAST


CITY           SKY/WX    TMP DP  RH WIND       PRES   REMARKS
ALBANY         MOSUNNY   70  51  51 W14       29.86S
GLENS FALLS    PTSUNNY   69  50  50 VRB5      29.84S
POUGHKEEPSIE   MOSUNNY   72  53  51 NW6       29.85S
NEWBURGH       PTSUNNY   70  54  56 NW9       29.88S
MONTGOMERY     MOSUNNY   70  50  49 NW8       29.87S
WHITE PLAINS   MOSUNNY   70  53  54 NW8       29.86S
ISLIP          MOSUNNY   76  54  46 N8        29.84S
NEW YORK CITY  MOSUNNY   73  51  46 NW12      29.86S
CENTRAL PARK   SUNNY     72  50  45 VRB7      29.89S
$$

NYZ005>009-017-018-044>046-055-056-291700-
CENTRAL


CITY           SKY/WX    TMP DP  RH WIND       PRES   REMARKS
FULTON         MOSUNNY   68  53  58 NW7       29.92R
SYRACUSE       PTSUNNY   67  54  63 SW10      29.91R
ROME           PTSUNNY   65  51  60 W14       29.91R
ELMIRA         CLOUDY    66  54  65 W10       29.94R
BINGHAMTON     CLOUDY    61  54  77 W10       29.93S
MONTICELLO     PTSUNNY   64  48  55 NW8G16    29.91S
$$

NYZ026>034-041>043-291700-
NORTH


CITY           SKY/WX    TMP DP  RH WIND       PRES   REMARKS
WATERTOWN      MOSUNNY   68  50  52 NW7       29.89S
FORT DRUM      NOT AVBL
MASSENA        PTSUNNY   65  53  65 W10       29.87R
SARANAC LAKE   CLOUDY    58  49  72 SW10      29.87R
PLATTSBURGH    CLOUDY    66  50  56 CALM      29.84R
$$

NYZ001>004-010>016-019>021-291700-
WEST


CITY           SKY/WX    TMP DP  RH WIND       PRES   REMARKS
NIAGARA FALLS  PTSUNNY   65  53  65 W7        29.94S
BUFFALO        PTSUNNY   65  50  58 NW3       29.95R
DUNKIRK        CLOUDY    64  53  67 W13       29.97R
JAMESTOWN      CLOUDY    59  48  67 W7        29.99R
WELLSVILLE     CLOUDY    60  49  66 SW5       29.99R
ROCHESTER      CLOUDY    66  51  58 VRB5      29.93S
PENN YAN       CLOUDY    64  53  67 W6        29.94S
$$

             KEY
       WCI = WIND CHILL INDEX
       VSB = VISIBILITY
       HX  = HEAT INDEX
$$


USA.gov is the U.S. government's official web portal to all federal, state and local government web resources and services.